Weather History for KCHS - January, 2014

Change the Weather History Date:

Saturday, January 25, 2014

  Actual Average Record
Temperature  
Mean Temperature 37 °F 49 °F  
Max Temperature 57 °F 60 °F 82 °F (1949)
Min Temperature 17 °F 38 °F 16 °F (1963)
Degree Days  
Heating Degree Days 28 16  
Month to date heating degree days 461 424  
Since 1 July heating degree days 1061 1162  
Cooling Degree Days 0 0  
Month to date cooling degree days 2 0  
Year to date cooling degree days 2 0  
Moisture  
Dew Point 22 °F    
Average Humidity 54    
Maximum Humidity 84    
Minimum Humidity 24    
Precipitation  
Precipitation 0.00 in 0.12 in 1.54 in (2010)
Month to date precipitation 2.08 3.00  
Year to date precipitation 2.08 3.00  
Sea Level Pressure  
Sea Level Pressure 30.04 in    
Wind  
Wind Speed 9 mph (WSW)    
Max Wind Speed 24 mph    
Max Gust Speed 33 mph    
Visibility 10 miles    
Events      
T = Trace of Precipitation, MM = Missing Value Source: NWS Daily Summary

Daily Weather History Graph

Daily Weather History Graph

Search for Another Location

Airport or City:

Trip Planner

Search our weather history database for the weather conditions in past years. The results will help you decide how hot, cold, wet, or windy it might be!

Date:

Astronomy

Jan. 25, 2014 Rise Set
Actual Time 7:19 AM EST 5:45 PM EST
Civil Twilight 6:53 AM EST 6:12 PM EST
Nautical Twilight 6:23 AM EST 6:42 PM EST
Astronomical Twilight 5:53 AM EST 7:11 PM EST
Moon 1:51 AM EST (1/25) 12:44 PM EST (1/25)
Length of Visible Light 11h 19m
Length of Day
10h 26m
Waning Crescent, 34% of the Moon is Illuminated
Jan 25
Waning Crescent
Jan 30
New
Feb 6
First Quarter
Feb 14
Full
Feb 22
Last Quarter

Hourly Weather History & Observations

Time (EST) Temp. Windchill Dew Point Humidity Pressure Visibility Wind Dir Wind Speed Gust Speed Precip Events Conditions
12:56 AM 19.4 °F - 10.9 °F 70% 30.33 in 10.0 mi Calm Calm - N/A   Clear
1:56 AM 19.2 °F - 12.0 °F 74% 30.31 in 10.0 mi Calm Calm - N/A   Clear
2:56 AM 18.0 °F - 12.0 °F 78% 30.28 in 10.0 mi Calm Calm - N/A   Clear
3:56 AM 21.0 °F - 10.9 °F 65% 30.23 in 10.0 mi Calm Calm - N/A   Clear
4:56 AM 16.7 °F - 12.0 °F 82% 30.22 in 10.0 mi Calm Calm - N/A   Scattered Clouds
5:56 AM 19.0 °F - 13.1 °F 78% 30.19 in 10.0 mi Calm Calm - N/A   Scattered Clouds
6:56 AM 19.9 °F - 12.9 °F 74% 30.18 in 10.0 mi Calm Calm - N/A   Partly Cloudy
7:56 AM 23.0 °F - 17.1 °F 78% 30.16 in 10.0 mi Calm Calm - N/A   Partly Cloudy
8:56 AM 34.0 °F 27.2 °F 21.0 °F 59% 30.15 in 10.0 mi WSW 8.1 mph - N/A   Partly Cloudy
9:56 AM 41.0 °F 34.3 °F 19.9 °F 43% 30.12 in 10.0 mi WSW 11.5 mph 17.3 mph N/A   Scattered Clouds
10:56 AM 46.9 °F - 18.0 °F 32% 30.07 in 10.0 mi West 16.1 mph 25.3 mph N/A   Scattered Clouds
11:56 AM 50.0 °F - 19.0 °F 29% 29.99 in 10.0 mi SW 17.3 mph 24.2 mph N/A   Scattered Clouds
12:56 PM 53.1 °F - 19.0 °F 26% 29.94 in 10.0 mi WSW 20.7 mph 28.8 mph N/A   Scattered Clouds
1:56 PM 54.0 °F - 19.0 °F 25% 29.88 in 10.0 mi WSW 17.3 mph 26.5 mph N/A   Scattered Clouds
2:56 PM 55.0 °F - 19.9 °F 25% 29.86 in 10.0 mi WSW 20.7 mph 29.9 mph N/A   Scattered Clouds
3:56 PM 55.9 °F - 23.0 °F 28% 29.83 in 10.0 mi WSW 13.8 mph 28.8 mph N/A   Scattered Clouds
4:56 PM 55.9 °F - 26.1 °F 32% 29.83 in 10.0 mi WSW 11.5 mph - N/A   Mostly Cloudy
5:56 PM 54.0 °F - 28.9 °F 38% 29.84 in 10.0 mi WSW 10.4 mph 19.6 mph N/A   Scattered Clouds
6:56 PM 53.1 °F - 33.1 °F 47% 29.86 in 10.0 mi WSW 11.5 mph - N/A   Partly Cloudy
7:56 PM 52.0 °F - 36.0 °F 54% 29.90 in 10.0 mi WSW 11.5 mph - N/A   Scattered Clouds
8:56 PM 51.1 °F - 37.0 °F 59% 29.91 in 10.0 mi WSW 10.4 mph 18.4 mph N/A   Partly Cloudy
9:56 PM 50.0 °F - 37.9 °F 63% 29.94 in 10.0 mi West 11.5 mph - N/A   Partly Cloudy
10:56 PM 48.9 °F - 37.9 °F 66% 29.97 in 10.0 mi West 8.1 mph - N/A   Clear
11:56 PM 44.1 °F 42.5 °F 37.0 °F 76% 29.98 in 10.0 mi WSW 3.5 mph - N/A   Clear